Regional Weather Roundup
Issued by NWS

Home | Current Version | Previous Version | Text Only | Print | Product List | Glossary Off
Versions: 1 2 3 4 5 6 7 8 9 10 11 12 13 14 15 16 17 18 19 20 21 22 23 24 25 26 27 28 29 30 31 32 33 34 35 36 37 38 39 40 41 42 43 44 45 46 47 48 49 50

000
ASUS43 KFSD 261102
RWRSD

WEATHER ROUNDUP FOR SOUTH DAKOTA
NATIONAL WEATHER SERVICE SIOUX FALLS SD
600 AM CDT FRI AUG 26 2016

NOTE: "FAIR" INDICATES FEW OR NO CLOUDS BELOW 12,000 FEET WITH NO
SIGNIFICANT WEATHER AND/OR OBSTRUCTIONS TO VISIBILITY.


SDZ001>005-009-010-012>017-261200-
NORTHWEST AND NORTH CENTRAL SOUTH DAKOTA

CITY           SKY/WX    TMP DP  RH WIND       PRES   REMARKS
BUFFALO          N/A     52  43  71 S7        30.07F
FAITH            N/A     49  46  90 S13       30.15S
MOBRIDGE       FAIR      52  47  83 MISG      30.12F
$$

SDZ012>016-024>037-041>051-057-063-072>074-261200-
SOUTHWEST AND SOUTH CENTRAL SOUTH DAKOTA

CITY           SKY/WX    TMP DP  RH WIND       PRES   REMARKS
RAPID CTY ARPT LGT RAIN  54  52  93 W8        30.20R
PIERRE         CLOUDY    50  47  89 CALM      30.15F
CUSTER         RAIN      47  45  93 NE6       30.23F FOG
PHILIP         RAIN      55  52  89 SW3       30.18S
PINE RIDGE     CLOUDY    55  48  77 E9        30.15F
WINNER         PTSUNNY   56  51  84 S5        30.17F
$$

SDZ004>011-016>023-039-040-261200-
NORTHEAST SOUTH DAKOTA

CITY           SKY/WX    TMP DP  RH WIND       PRES   REMARKS
ABERDEEN       FAIR      44  42  93 SE7       30.15S
WATERTOWN      MOCLDY    50  48  93 CALM      30.17S
BROOKINGS      FAIR      47  46  97 CALM      30.17F FOG
$$

SDZ017-020-022-023-036>040-048>070-261200-
SOUTHEAST SOUTH DAKOTA

CITY           SKY/WX    TMP DP  RH WIND       PRES   REMARKS
SIOUX FALLS    FAIR      49  49 100 CALM      30.17S
HURON          FAIR      47  45  93 CALM      30.17S
CHAMBERLAIN    FAIR      48  47  93 CALM      30.17S
MITCHELL       FAIR      50  48  93 CALM      30.18S
YANKTON        FAIR      52  46  82 N3        30.16R
$$

ABBREVIATIONS USED IN REMARKS
   TC - TEMPERATURE IN CELSIUS
  WCI - WIND CHILL INDEX
   HX - HEAT INDEX
  VSB - VISIBILITY





USA.gov is the U.S. government's official web portal to all federal, state and local government web resources and services.